Home > Weather > Roanoke > Past weeks

Flag for USA Past Weather in Roanoke, Virginia, USA — Yesterday and Last 2 Weeks

Now
88 °F

Thunderstorms. Partly sunny.


Feels Like: 94 °F
Forecast: 72 / 89 °F
Wind: 10 mph from South

Location: Roanoke Regional Airport

Current Time: Jul 28, 2016 at 4:25:01 PM

Latest Report: Jul 28, 2016 at 3:54 PM


Visibility: 10 mi

Pressure: 29.83 "Hg

Humidity: 57%

Dew Point: 71 °F

Location of RoanokeLocation

Past Weather in Roanoke — Graph

°F

Roanoke Temperature Yesterday

Maximum temperature yesterday: 92 °F (at 1:54 PM)
Minimum temperature yesterday: 73 °F (at 5:54 AM)
Average temperature yesterday: 79 °F

High & Low Weather Summary for the Past Weeks

 TemperatureHumidityPressure
High97 °F (Jul 24, 2:54 PM)97% (Jul 27, 5:00 PM)30.23 "Hg (Jul 27, 5:00 PM)
Low65 °F (Jul 21, 6:54 AM)34% (Jul 20, 3:54 PM)29.85 "Hg (Jul 28, 2:54 PM)
Average80 °F68%30.06 "Hg
* Reported Jul 13 2:54 PM — Jul 28 2:54 PM, Roanoke, Weather by CustomWeather, © 2016

Note: Actual official high and low records may vary slightly from our data, if they occured in-between our weather recording intervals... More about our weather records

Advertising

Roanoke Weather History for the Previous 24 Hours

Scroll right to see more
 ConditionsComfort  
Time TempWeatherWind HumidityBarometerVisibility
2:54 PM
Thu, Jul 28
89 °FBroken clouds.3 mph52%29.85 "Hg10 mi
1:54 PM91 °FPassing clouds.3 mph45%29.88 "Hg10 mi
12:54 PM88 °FPassing clouds.6 mph55%29.91 "Hg10 mi
11:54 AM86 °FScattered clouds.6 mph61%29.92 "Hg10 mi
10:54 AM85 °FScattered clouds.6 mph63%29.94 "Hg10 mi
9:54 AM82 °FSunny.6 mph70%29.95 "Hg10 mi
8:54 AM79 °FPassing clouds.5 mph79%29.96 "Hg10 mi
7:54 AM75 °FScattered clouds.N/A94%29.97 "Hg10 mi
6:54 AM75 °FPartly cloudy.6 mph94%29.96 "Hg10 mi
5:54 AM75 °FPartly cloudy.5 mph94%29.96 "Hg10 mi
4:54 AM76 °FOvercast.3 mph91%29.96 "Hg10 mi
3:54 AM75 °FMostly cloudy.5 mph94%29.95 "Hg10 mi
2:54 AM74 °FPassing clouds.No wind97%29.96 "Hg10 mi
1:54 AM74 °FClear.No wind97%29.96 "Hg8 mi
12:54 AM75 °FClear.5 mph96%29.96 "Hg9 mi
11:54 PM
Wed, Jul 27
75 °FPassing clouds.No wind96%29.95 "Hg9 mi
10:54 PM76 °FPassing clouds.No wind94%29.97 "Hg10 mi
9:54 PM75 °FPassing clouds.3 mph94%29.98 "Hg10 mi
8:54 PM77 °FScattered clouds.No wind90%29.98 "Hg10 mi
7:54 PM77 °FScattered clouds.5 mph90%29.98 "Hg10 mi
6:54 PM80 °FPartly sunny.3 mph81%29.96 "Hg10 mi
5:54 PM75 °FPartly sunny.No wind94%29.97 "Hg10 mi
5:00 PM74 °FStrong thunderstorms. Fog.No wind97%30.04 "Hg2 mi
4:54 PM75 °FStrong thunderstorms. Fog.No wind94%30.01 "Hg1 mi
Weather by CustomWeather, © 2016

See weather overviewHow to use our weather pages